Date,TemperatureHighF,TemperatureAvgF,TemperatureLowF,DewpointHighF,DewpointAvgF,DewpointLowF,HumidityHigh,HumidityAvg,HumidityLow,PressureMaxIn,PressureMinIn,WindSpeedMaxMPH,WindSpeedAvgMPH,GustSpeedMaxMPH,PrecipitationSumIn
2013-3-1,46.2,46.2,46.2,43.2,43.2,43.2,89,89,89,29.53,29.53,8,8,13,0.40
2013-3-2,46.2,46.2,46.2,43.2,43.2,43.2,89,89,89,29.53,29.53,8,8,13,0.40
2013-3-3,46.2,46.2,46.2,43.2,43.2,43.2,89,89,89,29.53,29.53,8,8,13,0.40
2013-3-4,46.2,46.2,46.2,43.2,43.2,43.2,89,89,89,29.53,29.53,8,8,13,0.40
2013-3-5,46.2,46.2,46.2,43.2,43.2,43.2,89,89,89,29.53,29.53,8,8,13,0.40
2013-3-6,34.7,32.8,30.0,29.0,27.3,24.5,86,80,74,30.18,29.88,8,2,10,0.44
2013-3-7,39.4,34.7,30.9,30.9,27.2,23.1,87,75,58,30.28,30.03,6,1,8,0.04
2013-3-8,50.0,38.9,27.5,28.3,24.8,21.6,84,58,38,30.33,30.13,10,2,13,0.00
2013-3-9,36.5,35.0,31.8,26.6,25.8,21.4,73,69,55,30.22,30.00,7,5,11,0.00
2013-3-10,35.4,35.4,35.4,26.6,26.6,26.6,70,70,70,30.00,30.00,5,5,8,0.00
2013-3-11,54.0,41.5,35.4,53.0,35.1,25.5,98,78,70,30.24,29.87,30,9,35,0.08
2013-3-12,49.6,40.0,34.0,34.1,28.6,23.3,92,65,42,30.30,30.12,20,8,26,0.01
2013-3-13,36.5,31.9,27.5,32.8,22.4,14.7,94,68,48,30.57,30.26,17,6,21,0.01
2013-3-14,48.2,33.7,21.6,34.1,21.3,12.0,97,64,28,30.59,30.42,14,5,18,0.00
2013-3-15,57.0,42.8,27.5,43.3,36.2,26.0,99,80,53,30.42,29.93,11,3,14,0.00
2013-3-16,65.7,51.2,41.4,52.2,42.4,35.2,93,73,54,30.25,29.84,19,6,23,0.00
2013-3-17,41.4,37.3,35.6,36.1,32.8,28.5,93,84,72,30.34,30.15,13,5,18,0.21
2013-3-18,50.0,41.3,36.1,48.0,39.4,34.3,99,93,83,30.15,29.85,15,6,24,0.63
2013-3-19,47.5,38.1,28.4,37.2,19.2,5.3,95,51,21,30.37,30.08,24,8,32,0.11
2013-3-20,37.9,32.0,26.1,20.2,12.3,1.6,68,45,24,30.36,30.09,21,5,24,0.00
2013-3-21,38.1,27.9,20.8,13.9,7.5,-0.3,73,44,21,30.22,29.92,12,3,14,0.00
2013-3-22,47.1,33.7,19.0,26.3,14.5,7.1,77,48,20,29.95,29.78,14,2,21,0.00
2013-3-23,55.9,44.8,37.0,28.4,22.4,14.6,65,43,21,29.98,29.69,12,3,14,0.00
2013-3-24,43.9,37.5,33.1,34.3,30.5,24.2,99,78,47,29.80,28.28,12,3,17,0.08
2013-3-25,36.0,33.1,30.4,32.8,30.6,28.6,99,91,81,29.91,29.29,11,3,15,0.19
2013-3-26,43.2,36.5,31.8,32.8,27.3,21.7,93,71,45,30.19,29.81,12,5,17,0.02
2013-3-27,47.1,37.9,26.1,30.8,23.8,19.5,85,58,35,30.24,30.04,11,3,14,0.00
2013-3-28,52.7,40.6,25.5,30.1,24.2,20.2,85,56,32,30.26,29.91,10,2,13,0.00
2013-3-29,57.9,44.2,30.6,33.7,28.8,20.6,91,59,25,29.91,29.72,10,2,14,0.00
2013-3-30,60.8,47.0,30.4,41.8,34.3,27.8,92,65,35,30.21,29.42,18,4,21,0.00
2013-3-31,62.1,52.3,46.8,50.5,45.2,38.9,99,79,44,30.17,29.08,18,4,26,0.12